Weather History for Imperial, CA

Change the Weather History Date:

Sunday, February 17, 2013

  Actual Average Record
Temperature  
Mean Temperature 62 °F -  
Max Temperature 81 °F 74 °F 88 °F (1981)
Min Temperature 44 °F 46 °F 30 °F (1956)
Degree Days  
Heating Degree Days 2    
Growing Degree Days 12 (Base 50)    
Moisture  
Dew Point 23 °F    
Average Humidity 25    
Maximum Humidity 40    
Minimum Humidity 9    
Precipitation  
Precipitation 0.00 in - - ()
Sea Level Pressure  
Sea Level Pressure 29.87 in    
Wind  
Wind Speed 8 mph (West)    
Max Wind Speed 21 mph    
Max Gust Speed 18 mph    
Visibility 10 miles    
Events      
Averages and records for this station are not official NWS values.
T = Trace of Precipitation, MM = Missing Value Source: NWS Daily Summary

Daily Weather History Graph

Daily Weather History Graph

Search for Another Location

Airport:

Trip Planner

Search our weather history database for the weather conditions in past years. The results will help you decide how hot, cold, wet, or windy it might be!

Date:

Astronomy

Feb. 17, 2013 Rise Set
Actual Time 6:23 AM PST 5:29 PM PST
Civil Twilight 5:58 AM PST 5:54 PM PST
Nautical Twilight 5:29 AM PST 6:23 PM PST
Astronomical Twilight 5:00 AM PST 6:52 PM PST
Moon 10:44 AM PST (2/17) 12:04 AM PST (2/17)
Length of Visible Light 11h 56m
Length of Day
11h 06m
Waxing Crescent, 50% of the Moon is Illuminated
Feb 17
Waxing Crescent
Feb 17
First Quarter
Feb 25
Full
Mar 4
Last Quarter
Mar 11
New

Hourly Weather History & Observations

Time (PST) Temp. Windchill Dew Point Humidity Pressure Visibility Wind Dir Wind Speed Gust Speed Precip Events Conditions
12:53 AM 46.9 °F - 21.0 °F 36% 29.93 in 10.0 mi West 8.1 mph - N/A   Clear
1:53 AM 46.0 °F 43.9 °F 21.9 °F 39% 29.91 in 10.0 mi West 4.6 mph - N/A   Clear
2:53 AM 46.0 °F 42.5 °F 21.0 °F 37% 29.90 in 10.0 mi WSW 6.9 mph - N/A   Clear
3:53 AM 46.9 °F - 21.0 °F 36% 29.88 in 10.0 mi WSW 4.6 mph - N/A   Clear
4:53 AM 44.6 °F 40.7 °F 21.2 °F 39% 29.89 in 10.0 mi WSW 6.9 mph - N/A   Clear
5:53 AM 45.0 °F 41.2 °F 21.9 °F 40% 29.89 in 10.0 mi West 6.9 mph - N/A   Clear
6:53 AM 48.0 °F - 21.0 °F 34% 29.90 in 10.0 mi WSW 6.9 mph - N/A   Clear
7:53 AM 60.1 °F - 28.0 °F 30% 29.91 in 10.0 mi West 10.4 mph - N/A   Clear
8:53 AM 66.9 °F - 28.0 °F 23% 29.91 in 10.0 mi West 9.2 mph - N/A   Clear
9:53 AM 73.0 °F - 23.0 °F 15% 29.91 in 10.0 mi WNW 8.1 mph - N/A   Clear
10:53 AM 75.9 °F - 21.0 °F 13% 29.89 in 10.0 mi West 4.6 mph - N/A   Clear
11:53 AM 79.0 °F - 16.0 °F 9% 29.86 in 10.0 mi NE 3.5 mph - N/A   Clear
12:53 PM 80.1 °F - 16.0 °F 9% 29.83 in 10.0 mi WSW 12.7 mph 18.4 mph N/A   Clear
1:53 PM 81.0 °F - 16.0 °F 9% 29.81 in 10.0 mi West 5.8 mph - N/A   Clear
2:53 PM 81.0 °F - 18.0 °F 10% 29.80 in 10.0 mi West 6.9 mph - N/A   Clear
3:53 PM 78.1 °F - 23.0 °F 13% 29.80 in 10.0 mi WSW 20.7 mph - N/A   Clear
4:53 PM 73.9 °F - 24.1 °F 16% 29.81 in 10.0 mi WSW 17.3 mph - N/A   Clear
5:53 PM 69.1 °F - 26.1 °F 20% 29.83 in 10.0 mi WSW 13.8 mph - N/A   Clear
6:53 PM 64.9 °F - 30.9 °F 28% 29.85 in 10.0 mi WSW 10.4 mph - N/A   Clear
7:53 PM 63.0 °F - 33.1 °F 33% 29.86 in 10.0 mi West 11.5 mph - N/A   Clear
9:53 PM 55.9 °F - 27.0 °F 33% 29.89 in 10.0 mi West 9.2 mph - N/A   Clear
10:53 PM 55.9 °F - 25.0 °F 30% 29.90 in 10.0 mi West 8.1 mph - N/A   Clear
11:53 PM 53.1 °F - 25.0 °F 34% 29.92 in 10.0 mi West 6.9 mph - N/A   Clear